Private Wetterstation Wechselburg
Wetterdaten: Dienstag, 14.02.2012
Datum Zeit Temp. +2m Bodentemp. Temp.+5cm Temp. Wind Windchill X Diff Temp. Feuchte +2m Feuchte +5cm Sonnenschein Luftdruck Regen Wind Richtung Richtung Sonnenschein UV Taupunkt Windchill Windben
14.02.2012 00:00 -3,3 C -0,9 C -3,3 C -3,4 C -3,7 C 0,0 C 81 % 84 % 0 % 1019,4 hPa 0,0 l/m 1,0 km/h (0 Bft) S-SW 202 0 min 0,0 UV-I -6,1 C -3,7 C 0,0 km/h (0 Bft)
14.02.2012 00:10 -3,3 C -0,9 C -3,3 C -3,4 C -3,6 C 0,0 C 81 % 84 % 0 % 1019,4 hPa 0,0 l/m 1,4 km/h (1 Bft) N 0 0 min 0,0 UV-I -6,1 C -3,6 C 0,0 km/h (0 Bft)
14.02.2012 00:20 -3,4 C -0,9 C -3,5 C -3,5 C -3,7 C 0,0 C 81 % 85 % 0 % 1019,4 hPa 0,0 l/m 0,5 km/h (0 Bft) S-SW 202 0 min 0,0 UV-I -6,2 C -3,7 C 0,0 km/h (0 Bft)
14.02.2012 00:25 -3,3 C -0,9 C -3,5 C -3,4 C -3,7 C 0,0 C 81 % 85 % 0 % 1019,4 hPa 0,0 l/m 0,2 km/h (0 Bft) S-SW 202 0 min 0,0 UV-I -6,1 C -3,7 C 1,9 km/h (1 Bft)
14.02.2012 00:30 -3,3 C -0,9 C -3,5 C -3,4 C -3,7 C 0,0 C 81 % 85 % 0 % 1019,4 hPa 0,0 l/m 0,2 km/h (0 Bft) SW 225 0 min 0,0 UV-I -6,1 C -3,7 C 0,0 km/h (0 Bft)
14.02.2012 00:35 -3,3 C -0,9 C -3,5 C -3,4 C -3,7 C 0,0 C 81 % 85 % 0 % 1019,4 hPa 0,0 l/m 0,2 km/h (0 Bft) S 180 0 min 0,0 UV-I -6,1 C -3,7 C 0,0 km/h (0 Bft)
14.02.2012 00:40 -3,3 C -0,9 C -3,5 C -3,4 C -3,7 C 0,0 C 81 % 85 % 0 % 1019,1 hPa 0,0 l/m 0,0 km/h (0 Bft) SO 135 0 min 0,0 UV-I -6,1 C -3,7 C 0,0 km/h (0 Bft)
14.02.2012 00:45 -3,3 C -0,9 C -3,5 C -3,4 C -3,7 C 0,0 C 81 % 85 % 0 % 1019,1 hPa 0,0 l/m 0,0 km/h (0 Bft) O-SO 112 0 min 0,0 UV-I -6,1 C -3,7 C 0,0 km/h (0 Bft)
14.02.2012 00:50 -3,3 C -0,9 C -3,5 C -3,5 C -3,8 C 0,0 C 81 % 85 % 0 % 1019,1 hPa 0,0 l/m 0,0 km/h (0 Bft) O-SO 112 0 min 0,0 UV-I -6,1 C -3,8 C 0,0 km/h (0 Bft)
14.02.2012 00:55 -3,5 C -0,9 C -3,5 C -3,6 C -3,8 C 0,0 C 82 % 85 % 0 % 1019,1 hPa 0,0 l/m 0,0 km/h (0 Bft) SW 225 0 min 0,0 UV-I -6,1 C -3,8 C 0,0 km/h (0 Bft)
14.02.2012 01:00 -3,5 C -0,9 C -3,5 C -3,6 C -3,8 C 0,0 C 81 % 85 % 0 % 1018,6 hPa 0,0 l/m 0,0 km/h (0 Bft) O-SO 112 0 min 0,0 UV-I -6,3 C -3,8 C 0,0 km/h (0 Bft)
14.02.2012 01:11 -3,5 C -0,9 C -3,5 C -3,6 C -3,8 C 0,0 C 82 % 85 % 0 % 1018,6 hPa 0,0 l/m 0,0 km/h (0 Bft) N 0 0 min 0,0 UV-I -6,1 C -3,8 C 0,0 km/h (0 Bft)
14.02.2012 01:20 -3,5 C -0,9 C -3,5 C -3,6 C -3,8 C 0,0 C 81 % 85 % 0 % 1018,1 hPa 0,0 l/m 0,2 km/h (0 Bft) SO 135 0 min 0,0 UV-I -6,3 C -3,8 C 0,0 km/h (0 Bft)
14.02.2012 01:25 -3,5 C -0,9 C -3,5 C -3,6 C -3,8 C 0,0 C 81 % 85 % 0 % 1018,1 hPa 0,0 l/m 0,3 km/h (0 Bft) SO 135 0 min 0,0 UV-I -6,3 C -3,8 C 0,0 km/h (0 Bft)
14.02.2012 01:30 -3,3 C -0,9 C -3,5 C -3,5 C -3,8 C 0,0 C 81 % 85 % 0 % 1018,1 hPa 0,0 l/m 0,3 km/h (0 Bft) SO 135 0 min 0,0 UV-I -6,1 C -3,8 C 0,0 km/h (0 Bft)
14.02.2012 01:35 -3,3 C -0,9 C -3,5 C -3,5 C -3,8 C 0,0 C 81 % 84 % 0 % 1018,1 hPa 0,0 l/m 0,3 km/h (0 Bft) S 180 0 min 0,0 UV-I -6,1 C -3,8 C 0,0 km/h (0 Bft)
14.02.2012 01:40 -3,3 C -0,9 C -3,5 C -3,4 C -3,7 C 0,0 C 81 % 84 % 0 % 1019,1 hPa 0,0 l/m 0,3 km/h (0 Bft) O-NO 67 0 min 0,0 UV-I -6,1 C -3,7 C 3,5 km/h (1 Bft)
14.02.2012 01:45 -3,3 C -0,9 C -3,5 C -3,4 C -3,7 C 0,0 C 81 % 84 % 0 % 1019,1 hPa 0,0 l/m 0,3 km/h (0 Bft) S-SW 202 0 min 0,0 UV-I -6,1 C -3,7 C 0,0 km/h (0 Bft)
14.02.2012 01:50 -3,3 C -0,9 C -3,5 C -3,4 C -3,7 C 0,0 C 81 % 84 % 0 % 1019,1 hPa 0,0 l/m 0,2 km/h (0 Bft) S 180 0 min 0,0 UV-I -6,1 C -3,7 C 4,2 km/h (1 Bft)
14.02.2012 01:55 -3,3 C -0,9 C -3,5 C -3,5 C -3,8 C 0,0 C 81 % 85 % 0 % 1019,1 hPa 0,0 l/m 0,2 km/h (0 Bft) S 180 0 min 0,0 UV-I -6,1 C -3,8 C 0,0 km/h (0 Bft)
14.02.2012 02:00 -3,3 C -0,9 C -3,5 C -3,5 C -3,8 C 0,0 C 81 % 85 % 0 % 1018,8 hPa 0,0 l/m 0,3 km/h (0 Bft) W-SW 247 0 min 0,0 UV-I -6,1 C -3,8 C 0,0 km/h (0 Bft)
14.02.2012 02:11 -3,3 C -0,9 C -3,5 C -3,4 C -3,7 C 0,0 C 81 % 84 % 0 % 1018,8 hPa 0,0 l/m 0,6 km/h (0 Bft) N 0 0 min 0,0 UV-I -6,1 C -3,7 C 1,9 km/h (1 Bft)
14.02.2012 02:20 -3,3 C -0,9 C -3,5 C -3,4 C -3,7 C 0,0 C 81 % 84 % 0 % 1018,8 hPa 0,0 l/m 0,6 km/h (0 Bft) S 180 0 min 0,0 UV-I -6,1 C -3,7 C 0,0 km/h (0 Bft)
14.02.2012 02:25 -3,3 C -0,9 C -3,5 C -3,4 C -3,7 C 0,0 C 81 % 84 % 0 % 1018,8 hPa 0,0 l/m 0,3 km/h (0 Bft) W-SW 247 0 min 0,0 UV-I -6,1 C -3,7 C 0,0 km/h (0 Bft)
14.02.2012 02:30 -3,3 C -0,9 C -3,5 C -3,4 C -3,7 C 0,0 C 81 % 84 % 0 % 1018,8 hPa 0,0 l/m 0,0 km/h (0 Bft) SW 225 0 min 0,0 UV-I -6,1 C -3,7 C 0,0 km/h (0 Bft)
14.02.2012 02:35 -3,3 C -0,9 C -3,5 C -3,5 C -3,8 C 0,0 C 81 % 85 % 0 % 1018,8 hPa 0,0 l/m 0,2 km/h (0 Bft) S 180 0 min 0,0 UV-I -6,1 C -3,8 C 0,0 km/h (0 Bft)
14.02.2012 02:40 -3,3 C -0,9 C -3,5 C -3,5 C -3,8 C 0,0 C 81 % 85 % 0 % 1018,8 hPa 0,0 l/m 0,2 km/h (0 Bft) S 180 0 min 0,0 UV-I -6,1 C -3,8 C 0,0 km/h (0 Bft)
14.02.2012 02:45 -3,5 C -0,9 C -3,6 C -3,6 C -3,8 C 0,0 C 81 % 85 % 0 % 1018,8 hPa 0,0 l/m 0,0 km/h (0 Bft) S-SO 157 0 min 0,0 UV-I -6,3 C -3,8 C 0,0 km/h (0 Bft)
14.02.2012 02:50 -3,5 C -0,9 C -3,6 C -3,6 C -3,9 C 0,0 C 81 % 85 % 0 % 1018,8 hPa 0,0 l/m 0,0 km/h (0 Bft) S-SO 157 0 min 0,0 UV-I -6,3 C -3,9 C 0,0 km/h (0 Bft)
14.02.2012 02:55 -3,5 C -0,9 C -3,7 C -3,6 C -3,9 C 0,0 C 82 % 85 % 0 % 1018,8 hPa 0,0 l/m 0,0 km/h (0 Bft) S-SO 157 0 min 0,0 UV-I -6,1 C -3,9 C 0,0 km/h (0 Bft)
14.02.2012 03:00 -3,5 C -0,9 C -3,5 C -3,6 C -3,9 C 0,0 C 82 % 85 % 0 % 1018,4 hPa 0,0 l/m 0,0 km/h (0 Bft) S-SO 157 0 min 0,0 UV-I -6,1 C -3,9 C 0,0 km/h (0 Bft)
14.02.2012 03:11 -3,6 C -0,9 C -3,5 C -3,7 C -4,0 C 0,0 C 81 % 85 % 0 % 1018,4 hPa 0,0 l/m 0,0 km/h (0 Bft) N 0 0 min 0,0 UV-I -6,4 C -4,0 C 0,0 km/h (0 Bft)
14.02.2012 03:20 -3,5 C -0,9 C -3,7 C -3,7 C -4,0 C 0,0 C 82 % 85 % 0 % 1018,4 hPa 0,0 l/m 0,0 km/h (0 Bft) W-SW 247 0 min 0,0 UV-I -6,1 C -4,0 C 0,0 km/h (0 Bft)
14.02.2012 03:25 -3,6 C -0,9 C -3,7 C -3,7 C -4,0 C 0,0 C 81 % 85 % 0 % 1018,4 hPa 0,0 l/m 0,0 km/h (0 Bft) W-SW 247 0 min 0,0 UV-I -6,4 C -4,0 C 0,0 km/h (0 Bft)
14.02.2012 03:30 -3,6 C -0,9 C -3,7 C -3,7 C -4,0 C 0,0 C 81 % 85 % 0 % 1018,4 hPa 0,0 l/m 0,2 km/h (0 Bft) W-SW 247 0 min 0,0 UV-I -6,4 C -4,0 C 2,3 km/h (1 Bft)
14.02.2012 03:35 -3,6 C -0,9 C -3,7 C -3,7 C -4,0 C 0,0 C 81 % 85 % 0 % 1018,4 hPa 0,0 l/m 0,5 km/h (0 Bft) SW 225 0 min 0,0 UV-I -6,4 C -4,0 C 3,7 km/h (1 Bft)
14.02.2012 03:40 -3,6 C -0,9 C -3,6 C -3,7 C -3,9 C 0,0 C 81 % 85 % 0 % 1018,0 hPa 0,0 l/m 1,1 km/h (1 Bft) S 180 0 min 0,0 UV-I -6,4 C -3,9 C 4,3 km/h (1 Bft)
14.02.2012 03:45 -3,5 C -0,9 C -3,6 C -3,6 C -3,9 C 0,0 C 82 % 85 % 0 % 1018,0 hPa 0,0 l/m 1,4 km/h (1 Bft) S-SW 202 0 min 0,0 UV-I -6,1 C -3,9 C 3,1 km/h (1 Bft)
14.02.2012 03:50 -3,5 C -0,9 C -3,7 C -3,6 C -3,9 C 0,0 C 82 % 85 % 0 % 1018,0 hPa 0,0 l/m 1,0 km/h (0 Bft) S-SW 202 0 min 0,0 UV-I -6,1 C -3,9 C 0,0 km/h (0 Bft)
14.02.2012 03:55 -3,5 C -0,9 C -3,7 C -3,7 C -4,1 C 0,0 C 81 % 84 % 0 % 1018,0 hPa 0,0 l/m 0,3 km/h (0 Bft) S 180 0 min 0,0 UV-I -6,3 C -4,1 C 0,0 km/h (0 Bft)
14.02.2012 04:00 -3,6 C -0,9 C -3,8 C -3,8 C -4,2 C 0,0 C 81 % 85 % 0 % 1018,0 hPa 0,0 l/m 0,0 km/h (0 Bft) S 180 0 min 0,0 UV-I -6,4 C -4,2 C 0,0 km/h (0 Bft)
14.02.2012 04:05 -3,7 C -0,9 C -3,7 C -3,9 C -4,3 C 0,0 C 81 % 85 % 0 % 1018,0 hPa 0,0 l/m 0,0 km/h (0 Bft) S 180 0 min 0,0 UV-I -6,5 C -4,3 C 0,0 km/h (0 Bft)
14.02.2012 04:10 -3,7 C -0,9 C -3,9 C -3,9 C -4,4 C 0,0 C 81 % 85 % 0 % 1018,0 hPa 0,0 l/m 0,2 km/h (0 Bft) S 180 0 min 0,0 UV-I -6,5 C -4,4 C 0,0 km/h (0 Bft)
14.02.2012 04:15 -3,7 C -0,9 C -3,9 C -4,0 C -4,5 C 0,0 C 81 % 85 % 0 % 1018,0 hPa 0,0 l/m 0,3 km/h (0 Bft) S 180 0 min 0,0 UV-I -6,5 C -4,5 C 0,0 km/h (0 Bft)
14.02.2012 04:20 -3,7 C -0,9 C -3,9 C -4,0 C -4,5 C 0,0 C 81 % 85 % 0 % 1017,8 hPa 0,0 l/m 0,5 km/h (0 Bft) S 180 0 min 0,0 UV-I -6,5 C -4,5 C 0,0 km/h (0 Bft)
14.02.2012 04:25 -3,7 C -0,9 C -4,0 C -4,0 C -4,5 C 0,0 C 81 % 85 % 0 % 1017,8 hPa 0,0 l/m 0,2 km/h (0 Bft) SO 135 0 min 0,0 UV-I -6,5 C -4,5 C 0,0 km/h (0 Bft)
14.02.2012 04:30 -3,7 C -0,9 C -4,1 C -4,0 C -4,5 C 0,0 C 81 % 85 % 0 % 1017,8 hPa 0,0 l/m 0,0 km/h (0 Bft) S 180 0 min 0,0 UV-I -6,5 C -4,5 C 0,0 km/h (0 Bft)
14.02.2012 04:35 -3,9 C -0,9 C -4,1 C -4,1 C -4,5 C 0,0 C 81 % 85 % 0 % 1017,8 hPa 0,0 l/m 0,2 km/h (0 Bft) SW 225 0 min 0,0 UV-I -6,7 C -4,5 C 1,8 km/h (1 Bft)
14.02.2012 04:40 -3,9 C -0,9 C -4,1 C -4,1 C -4,5 C 0,0 C 81 % 85 % 0 % 1017,9 hPa 0,0 l/m 0,2 km/h (0 Bft) S 180 0 min 0,0 UV-I -6,7 C -4,5 C 0,0 km/h (0 Bft)
14.02.2012 04:45 -4,0 C -0,9 C -4,2 C -4,2 C -4,5 C 0,0 C 81 % 85 % 0 % 1017,9 hPa 0,0 l/m 0,2 km/h (0 Bft) W 270 0 min 0,0 UV-I -6,8 C -4,5 C 0,0 km/h (0 Bft)
14.02.2012 04:50 -4,0 C -0,9 C -4,1 C -4,1 C -4,4 C 0,0 C 81 % 85 % 0 % 1017,9 hPa 0,0 l/m 0,0 km/h (0 Bft) W 270 0 min 0,0 UV-I -6,8 C -4,4 C 0,0 km/h (0 Bft)
14.02.2012 04:55 -4,0 C -0,9 C -4,2 C -4,1 C -4,3 C 0,0 C 81 % 85 % 0 % 1017,9 hPa 0,0 l/m 0,0 km/h (0 Bft) W 270 0 min 0,0 UV-I -6,8 C -4,3 C 0,0 km/h (0 Bft)
14.02.2012 05:00 -4,0 C -0,9 C -4,1 C -4,1 C -4,4 C 0,0 C 81 % 85 % 0 % 1018,2 hPa 0,0 l/m 0,0 km/h (0 Bft) W 270 0 min 0,0 UV-I -6,8 C -4,4 C 0,0 km/h (0 Bft)
14.02.2012 05:11 -4,1 C -0,9 C -4,3 C -4,2 C -4,5 C 0,0 C 82 % 85 % 0 % 1018,2 hPa 0,0 l/m 0,0 km/h (0 Bft) N 0 0 min 0,0 UV-I -6,7 C -4,5 C 0,0 km/h (0 Bft)
14.02.2012 05:20 -4,1 C -0,8 C -4,1 C -4,2 C -4,5 C 0,0 C 82 % 86 % 0 % 1018,0 hPa 0,0 l/m 0,0 km/h (0 Bft) SO 135 0 min 0,0 UV-I -6,7 C -4,5 C 0,0 km/h (0 Bft)
14.02.2012 05:25 -4,1 C -0,8 C -4,1 C -4,3 C -4,6 C 0,0 C 82 % 86 % 0 % 1018,0 hPa 0,0 l/m 0,0 km/h (0 Bft) S 180 0 min 0,0 UV-I -6,7 C -4,6 C 0,0 km/h (0 Bft)
14.02.2012 05:30 -4,1 C -0,8 C -4,1 C -4,3 C -4,6 C 0,0 C 82 % 86 % 0 % 1018,0 hPa 0,0 l/m 0,0 km/h (0 Bft) SO 135 0 min 0,0 UV-I -6,7 C -4,6 C 0,0 km/h (0 Bft)
14.02.2012 05:35 -4,2 C -0,8 C -4,1 C -4,3 C -4,4 C 0,0 C 82 % 86 % 0 % 1018,0 hPa 0,0 l/m 0,0 km/h (0 Bft) SO 135 0 min 0,0 UV-I -6,8 C -4,4 C 0,0 km/h (0 Bft)
14.02.2012 05:40 -4,1 C -0,8 C -4,2 C -4,2 C -4,3 C 0,0 C 82 % 86 % 0 % 1017,9 hPa 0,0 l/m 0,0 km/h (0 Bft) S-SW 202 0 min 0,0 UV-I -6,7 C -4,3 C 0,0 km/h (0 Bft)
14.02.2012 05:45 -4,1 C -0,8 C -4,1 C -4,1 C -4,2 C 0,0 C 82 % 86 % 0 % 1017,9 hPa 0,0 l/m 0,0 km/h (0 Bft) SO 135 0 min 0,0 UV-I -6,7 C -4,2 C 0,0 km/h (0 Bft)
14.02.2012 05:50 -4,1 C -0,8 C -4,1 C -4,1 C -4,1 C 0,0 C 83 % 86 % 0 % 1017,9 hPa 0,0 l/m 0,0 km/h (0 Bft) SO 135 0 min 0,0 UV-I -6,5 C -4,1 C 0,0 km/h (0 Bft)
14.02.2012 05:55 -3,9 C -0,8 C -4,0 C -4,0 C -4,1 C 0,0 C 83 % 86 % 0 % 1017,9 hPa 0,0 l/m 0,2 km/h (0 Bft) S 180 0 min 0,0 UV-I -6,4 C -4,1 C 0,0 km/h (0 Bft)
14.02.2012 06:00 -4,0 C -0,8 C -3,9 C -4,0 C -4,0 C 0,0 C 83 % 86 % 0 % 1017,9 hPa 0,0 l/m 0,3 km/h (0 Bft) S 180 0 min 0,0 UV-I -6,4 C -4,0 C 1,6 km/h (1 Bft)
14.02.2012 06:11 -3,9 C -0,8 C -3,9 C -3,9 C -4,0 C 0,0 C 82 % 86 % 0 % 1017,9 hPa 0,0 l/m 0,0 km/h (0 Bft) N 0 0 min 0,0 UV-I -6,5 C -4,0 C 0,0 km/h (0 Bft)
14.02.2012 06:20 -3,9 C -0,8 C -3,7 C -3,9 C -3,9 C 0,0 C 83 % 86 % 0 % 1017,6 hPa 0,0 l/m 0,0 km/h (0 Bft) O 90 0 min 0,0 UV-I -6,4 C -3,9 C 0,0 km/h (0 Bft)
14.02.2012 06:25 -3,7 C -0,8 C -3,8 C -3,8 C -3,9 C 0,0 C 83 % 86 % 0 % 1017,6 hPa 0,0 l/m 0,0 km/h (0 Bft) O 90 0 min 0,0 UV-I -6,2 C -3,9 C 0,0 km/h (0 Bft)
14.02.2012 06:30 -3,7 C -0,8 C -3,7 C -3,8 C -3,9 C 0,0 C 83 % 86 % 0 % 1017,6 hPa 0,0 l/m 0,0 km/h (0 Bft) O 90 0 min 0,0 UV-I -6,2 C -3,9 C 0,0 km/h (0 Bft)
14.02.2012 06:35 -3,7 C -0,8 C -3,7 C -3,7 C -3,8 C 0,0 C 83 % 86 % 0 % 1017,6 hPa 0,0 l/m 0,3 km/h (0 Bft) S 180 0 min 0,0 UV-I -6,2 C -3,8 C 2,4 km/h (1 Bft)
14.02.2012 06:40 -3,7 C -0,8 C -3,7 C -3,7 C -3,8 C 0,0 C 83 % 86 % 0 % 1017,3 hPa 0,0 l/m 0,3 km/h (0 Bft) SO 135 0 min 0,0 UV-I -6,2 C -3,8 C 0,0 km/h (0 Bft)
14.02.2012 06:45 -3,7 C -0,8 C -3,7 C -3,7 C -3,7 C 0,0 C 83 % 86 % 0 % 1017,3 hPa 0,0 l/m 0,3 km/h (0 Bft) SO 135 0 min 0,0 UV-I -6,2 C -3,7 C 0,0 km/h (0 Bft)
14.02.2012 06:50 -3,7 C -0,8 C -3,5 C -3,7 C -3,7 C 0,0 C 83 % 86 % 0 % 1017,3 hPa 0,0 l/m 0,0 km/h (0 Bft) SO 135 0 min 0,0 UV-I -6,2 C -3,7 C 0,0 km/h (0 Bft)
14.02.2012 06:55 -3,6 C -0,8 C -3,6 C -3,6 C -3,7 C 0,0 C 83 % 86 % 0 % 1017,3 hPa 0,0 l/m 0,0 km/h (0 Bft) SW 225 0 min 0,0 UV-I -6,1 C -3,7 C 0,0 km/h (0 Bft)
14.02.2012 07:00 -3,6 C -0,8 C -3,5 C -3,6 C -3,6 C 0,0 C 83 % 86 % 0 % 1017,2 hPa 0,0 l/m 0,2 km/h (0 Bft) S-SO 157 0 min 0,0 UV-I -6,1 C -3,6 C 0,0 km/h (0 Bft)
14.02.2012 07:11 -3,5 C -0,8 C -3,5 C -3,5 C -3,5 C 0,0 C 82 % 85 % 0 % 1017,2 hPa 0,0 l/m 0,5 km/h (0 Bft) N 0 0 min 0,0 UV-I -6,1 C -3,5 C 0,0 km/h (0 Bft)
14.02.2012 07:20 -3,3 C -0,8 C -3,3 C -3,4 C -3,5 C 0,0 C 82 % 86 % 0 % 1017,6 hPa 0,0 l/m 0,3 km/h (0 Bft) W-SW 247 0 min 0,0 UV-I -5,9 C -3,5 C 0,0 km/h (0 Bft)
14.02.2012 07:25 -3,4 C -0,8 C -3,5 C -3,4 C -3,4 C 0,0 C 82 % 86 % 0 % 1017,6 hPa 0,0 l/m 0,6 km/h (0 Bft) S 180 0 min 0,0 UV-I -6,0 C -3,4 C 0,0 km/h (0 Bft)
14.02.2012 07:30 -3,4 C -0,8 C -3,3 C -3,4 C -3,4 C 0,0 C 82 % 86 % 0 % 1017,6 hPa 0,0 l/m 0,6 km/h (0 Bft) NO 45 0 min 0,0 UV-I -6,0 C -3,4 C 0,0 km/h (0 Bft)
14.02.2012 07:35 -3,3 C -0,8 C -3,3 C -3,3 C -3,4 C 0,0 C 83 % 86 % 0 % 1017,6 hPa 0,0 l/m 0,6 km/h (0 Bft) S 180 0 min 0,0 UV-I -5,8 C -3,4 C 0,0 km/h (0 Bft)
14.02.2012 07:40 -3,3 C -0,8 C -3,3 C -3,3 C -3,4 C 0,0 C 83 % 86 % 0 % 1017,6 hPa 0,0 l/m 0,8 km/h (0 Bft) O-SO 112 0 min 0,0 UV-I -5,8 C -3,4 C 6,3 km/h (2 Bft)
14.02.2012 07:45 -3,3 C -0,8 C -3,3 C -3,3 C -3,4 C 0,0 C 83 % 86 % 0 % 1017,6 hPa 0,0 l/m 0,8 km/h (0 Bft) O 90 0 min 0,0 UV-I -5,8 C -3,4 C 1,8 km/h (1 Bft)
14.02.2012 07:50 -3,1 C -0,8 C -3,3 C -3,2 C -3,3 C 0,0 C 83 % 86 % 0 % 1017,6 hPa 0,0 l/m 0,6 km/h (0 Bft) S-SO 157 0 min 0,0 UV-I -5,6 C -3,3 C 0,0 km/h (0 Bft)
14.02.2012 07:55 -3,2 C -0,8 C -3,2 C -3,2 C -3,3 C 0,0 C 83 % 86 % 0 % 1017,6 hPa 0,0 l/m 0,5 km/h (0 Bft) S 180 0 min 0,0 UV-I -5,7 C -3,3 C 0,0 km/h (0 Bft)
14.02.2012 08:00 -3,2 C -0,8 C -3,1 C -3,2 C -3,2 C 0,0 C 83 % 86 % 0 % 1017,2 hPa 0,0 l/m 0,5 km/h (0 Bft) SW 225 0 min 0,0 UV-I -5,7 C -3,2 C 0,0 km/h (0 Bft)
14.02.2012 08:11 -3,1 C -0,8 C -2,9 C -3,0 C -3,0 C 0,1 C 83 % 86 % 3 % 1017,2 hPa 0,0 l/m 0,2 km/h (0 Bft) N 0 0 min 0,0 UV-I -5,6 C -3,0 C 0,0 km/h (0 Bft)
14.02.2012 08:20 -3,0 C -0,8 C -2,9 C -2,7 C -2,7 C 0,3 C 82 % 85 % 8 % 1017,4 hPa 0,0 l/m 1,1 km/h (1 Bft) S-SO 157 0 min 0,0 UV-I -5,6 C -2,7 C 0,0 km/h (0 Bft)
14.02.2012 08:25 -2,9 C -0,8 C -2,8 C -2,6 C -2,6 C 0,3 C 82 % 85 % 8 % 1017,4 hPa 0,0 l/m 1,9 km/h (1 Bft) S 180 0 min 0,0 UV-I -5,5 C -2,6 C 5,0 km/h (1 Bft)
14.02.2012 08:30 -2,9 C -0,8 C -2,7 C -2,6 C -2,6 C 0,3 C 82 % 85 % 8 % 1017,4 hPa 0,0 l/m 2,3 km/h (1 Bft) SO 135 0 min 0,0 UV-I -5,5 C -2,6 C 6,4 km/h (2 Bft)
14.02.2012 08:35 -2,8 C -0,8 C -2,7 C -2,9 C -3,0 C 0,0 C 82 % 85 % 0 % 1017,4 hPa 0,0 l/m 2,9 km/h (1 Bft) S-SW 202 0 min 0,0 UV-I -5,4 C -3,0 C 3,7 km/h (1 Bft)
14.02.2012 08:40 -2,8 C -0,8 C -2,7 C -2,9 C -3,0 C 0,0 C 82 % 85 % 0 % 1017,6 hPa 0,0 l/m 2,9 km/h (1 Bft) S 180 0 min 0,0 UV-I -5,4 C -3,0 C 4,7 km/h (1 Bft)
14.02.2012 08:45 -2,7 C -0,8 C -2,5 C -2,7 C -2,7 C 0,0 C 82 % 85 % 0 % 1017,6 hPa 0,0 l/m 2,6 km/h (1 Bft) S 180 0 min 0,0 UV-I -5,3 C -2,7 C 1,8 km/h (1 Bft)
14.02.2012 08:50 -2,7 C -0,8 C -2,5 C -2,3 C -2,3 C 0,4 C 82 % 85 % 11 % 1017,6 hPa 0,0 l/m 1,9 km/h (1 Bft) SW 225 0 min 0,0 UV-I -5,3 C -2,3 C 0,0 km/h (0 Bft)
14.02.2012 08:55 -2,5 C -0,8 C -2,5 C -2,1 C -2,1 C 0,4 C 81 % 85 % 11 % 1017,6 hPa 0,0 l/m 1,9 km/h (1 Bft) S-SW 202 0 min 0,0 UV-I -5,3 C -2,1 C 3,1 km/h (1 Bft)
14.02.2012 09:00 -2,5 C -0,8 C -2,4 C -2,0 C -2,0 C 0,5 C 81 % 84 % 13 % 1017,8 hPa 0,0 l/m 2,3 km/h (1 Bft) S-SO 157 0 min 0,0 UV-I -5,3 C -2,0 C 7,4 km/h (2 Bft)
14.02.2012 09:11 -2,5 C -0,8 C -2,3 C -1,7 C -1,7 C 0,8 C 81 % 84 % 21 % 1017,8 hPa 0,0 l/m 2,3 km/h (1 Bft) N 0 0 min 0,0 UV-I -5,3 C -1,7 C 0,0 km/h (0 Bft)
14.02.2012 09:20 -2,3 C -0,8 C -2,1 C -1,3 C -1,3 C 1,0 C 81 % 83 % 26 % 1017,8 hPa 0,0 l/m 1,1 km/h (1 Bft) SW 225 0 min 0,0 UV-I -5,1 C -1,3 C 1,8 km/h (1 Bft)
14.02.2012 09:25 -2,3 C -0,8 C -2,1 C -1,3 C -1,3 C 1,0 C 81 % 83 % 26 % 1017,8 hPa 0,0 l/m 1,9 km/h (1 Bft) S 180 0 min 0,0 UV-I -5,1 C -1,3 C 1,9 km/h (1 Bft)
14.02.2012 09:30 -2,1 C -0,8 C -1,9 C -1,2 C -1,2 C 0,9 C 81 % 83 % 24 % 1017,8 hPa 0,0 l/m 1,8 km/h (1 Bft) S-SO 157 0 min 0,0 UV-I -4,9 C -1,2 C 0,0 km/h (0 Bft)
14.02.2012 09:35 -2,1 C -0,8 C -1,9 C -1,1 C -1,1 C 1,0 C 81 % 83 % 26 % 1017,8 hPa 0,0 l/m 0,6 km/h (0 Bft) S-SW 202 0 min 0,0 UV-I -4,9 C -1,1 C 0,0 km/h (0 Bft)
14.02.2012 09:40 -2,1 C -0,8 C -1,7 C -1,0 C -1,0 C 1,1 C 81 % 83 % 29 % 1017,9 hPa 0,0 l/m 1,0 km/h (0 Bft) W-NW 292 0 min 0,0 UV-I -4,9 C -1,0 C 0,0 km/h (0 Bft)
14.02.2012 09:45 -2,0 C -0,8 C -1,7 C -0,9 C -0,9 C 1,1 C 80 % 83 % 29 % 1017,9 hPa 0,0 l/m 1,9 km/h (1 Bft) S 180 0 min 0,0 UV-I -5,0 C -0,9 C 6,1 km/h (2 Bft)
14.02.2012 09:50 -2,0 C -0,8 C -1,7 C -0,9 C -0,9 C 1,1 C 80 % 83 % 29 % 1017,9 hPa 0,0 l/m 1,9 km/h (1 Bft) W 270 0 min 0,0 UV-I -5,0 C -0,9 C 8,2 km/h (2 Bft)
14.02.2012 09:55 -1,9 C -0,8 C -1,7 C -0,8 C -0,8 C 1,1 C 80 % 83 % 29 % 1017,9 hPa 0,0 l/m 1,9 km/h (1 Bft) S-SW 202 0 min 0,0 UV-I -4,9 C -0,8 C 5,5 km/h (1 Bft)
14.02.2012 10:00 -1,9 C -0,8 C -1,7 C -0,8 C -0,8 C 1,1 C 80 % 83 % 29 % 1017,9 hPa 0,0 l/m 1,9 km/h (1 Bft) NW 315 0 min 0,0 UV-I -4,9 C -0,8 C 0,0 km/h (0 Bft)
14.02.2012 10:11 -1,7 C -0,8 C -1,5 C -0,6 C -0,6 C 1,1 C 81 % 83 % 29 % 1017,9 hPa 0,0 l/m 2,1 km/h (1 Bft) N 0 0 min 0,0 UV-I -4,5 C -0,6 C 4,2 km/h (1 Bft)
14.02.2012 10:20 -1,7 C -0,8 C -1,3 C -0,8 C -0,8 C 0,9 C 81 % 83 % 24 % 1017,9 hPa 0,0 l/m 2,9 km/h (1 Bft) W 270 0 min 0,0 UV-I -4,5 C -0,8 C 10,3 km/h (2 Bft)
14.02.2012 10:25 -1,7 C -0,8 C -1,3 C -0,4 C -0,4 C 1,3 C 81 % 83 % 34 % 1017,9 hPa 0,0 l/m 2,6 km/h (1 Bft) W 270 0 min 0,0 UV-I -4,5 C -0,4 C 2,9 km/h (1 Bft)
14.02.2012 10:30 -1,6 C -0,8 C -1,2 C 0,0 C 0,0 C 1,6 C 81 % 83 % 42 % 1017,9 hPa 0,0 l/m 1,9 km/h (1 Bft) SW 225 0 min 0,0 UV-I -4,4 C 0,0 C 4,5 km/h (1 Bft)
14.02.2012 10:35 -1,6 C -0,8 C -1,1 C 0,2 C 0,2 C 1,8 C 80 % 83 % 47 % 1017,9 hPa 0,0 l/m 2,3 km/h (1 Bft) W 270 0 min 0,0 UV-I -4,6 C 0,2 C 3,1 km/h (1 Bft)
14.02.2012 10:40 -1,5 C -0,8 C -1,1 C -0,3 C -0,3 C 1,2 C 81 % 82 % 32 % 1017,6 hPa 0,0 l/m 3,1 km/h (1 Bft) W-NW 292 0 min 0,0 UV-I -4,3 C -0,3 C 4,7 km/h (1 Bft)
14.02.2012 10:45 -1,6 C -0,8 C -1,1 C -0,8 C -0,8 C 0,8 C 80 % 82 % 21 % 1017,6 hPa 0,0 l/m 3,7 km/h (1 Bft) S 180 0 min 0,0 UV-I -4,6 C -0,8 C 3,4 km/h (1 Bft)
14.02.2012 10:50 -1,6 C -0,8 C -0,9 C -0,9 C -0,9 C 0,7 C 80 % 82 % 18 % 1017,6 hPa 0,0 l/m 3,9 km/h (1 Bft) W 270 0 min 0,0 UV-I -4,6 C -0,9 C 1,8 km/h (1 Bft)
14.02.2012 10:55 -1,5 C -0,8 C -0,9 C -0,4 C -0,4 C 1,1 C 80 % 82 % 29 % 1017,6 hPa 0,0 l/m 3,4 km/h (1 Bft) S-SW 202 0 min 0,0 UV-I -4,5 C -0,4 C 1,9 km/h (1 Bft)
14.02.2012 11:00 -1,3 C -0,8 C -0,9 C 0,5 C 0,5 C 1,8 C 81 % 82 % 47 % 1017,6 hPa 0,0 l/m 2,3 km/h (1 Bft) S 180 0 min 0,0 UV-I -4,1 C 0,5 C 14,3 km/h (3 Bft)
14.02.2012 11:11 -1,1 C -0,7 C -0,7 C 0,7 C 0,7 C 1,8 C 80 % 82 % 47 % 1017,6 hPa 0,0 l/m 2,3 km/h (1 Bft) N 0 0 min 0,0 UV-I -4,1 C 0,7 C 3,4 km/h (1 Bft)
14.02.2012 11:20 -1,1 C -0,8 C -0,7 C 0,1 C 0,1 C 1,2 C 80 % 81 % 32 % 1017,1 hPa 0,0 l/m 3,2 km/h (1 Bft) S-SW 202 0 min 0,0 UV-I -4,1 C 0,1 C 4,7 km/h (1 Bft)
14.02.2012 11:25 -1,2 C -0,7 C -0,5 C -0,2 C -0,2 C 1,0 C 80 % 81 % 26 % 1017,1 hPa 0,0 l/m 3,7 km/h (1 Bft) S 180 0 min 0,0 UV-I -4,2 C -0,2 C 5,8 km/h (2 Bft)
14.02.2012 11:30 -1,2 C -0,7 C -0,5 C -0,4 C -0,4 C 0,8 C 80 % 81 % 21 % 1017,1 hPa 0,0 l/m 4,2 km/h (1 Bft) W-SW 247 0 min 0,0 UV-I -4,2 C -0,4 C 2,9 km/h (1 Bft)
14.02.2012 11:35 -1,1 C -0,7 C -0,5 C 0,4 C 0,4 C 1,5 C 80 % 81 % 39 % 1017,1 hPa 0,0 l/m 3,1 km/h (1 Bft) SW 225 0 min 0,0 UV-I -4,1 C 0,4 C 5,0 km/h (1 Bft)
14.02.2012 11:40 -0,9 C -0,7 C -0,5 C 0,8 C 0,8 C 1,7 C 80 % 81 % 45 % 1017,1 hPa 0,0 l/m 2,4 km/h (1 Bft) W 270 0 min 0,0 UV-I -3,9 C 0,8 C 2,9 km/h (1 Bft)
14.02.2012 11:45 -0,9 C -0,7 C -0,4 C 0,9 C 0,9 C 1,8 C 81 % 82 % 47 % 1017,1 hPa 0,0 l/m 2,6 km/h (1 Bft) O-SO 112 0 min 0,0 UV-I -3,7 C 0,9 C 0,0 km/h (0 Bft)
14.02.2012 11:50 -0,9 C -0,7 C -0,3 C 0,9 C 0,9 C 1,8 C 80 % 82 % 47 % 1017,1 hPa 0,0 l/m 2,7 km/h (1 Bft) S 180 0 min 0,0 UV-I -3,9 C 0,9 C 8,2 km/h (2 Bft)
14.02.2012 11:55 -0,9 C -0,7 C -0,4 C 0,6 C 0,6 C 1,5 C 80 % 82 % 39 % 1017,1 hPa 0,0 l/m 3,2 km/h (1 Bft) S 180 0 min 0,0 UV-I -3,9 C 0,6 C 5,3 km/h (1 Bft)
14.02.2012 12:00 -0,9 C -0,7 C -0,3 C 0,4 C 0,4 C 1,3 C 80 % 81 % 34 % 1017,1 hPa 0,0 l/m 3,4 km/h (1 Bft) S-SO 157 0 min 0,0 UV-I -3,9 C 0,4 C 6,8 km/h (2 Bft)
14.02.2012 12:13 -0,8 C -0,7 C -0,1 C 1,5 C 1,5 C 2,3 C 80 % 81 % 61 % 1017,1 hPa 0,0 l/m 2,3 km/h (1 Bft) N 0 0 min 0,0 UV-I -3,8 C 1,5 C 0,0 km/h (0 Bft)
14.02.2012 12:20 -0,6 C -0,7 C -0,1 C 1,8 C 1,8 C 2,4 C 80 % 81 % 63 % 1016,7 hPa 0,0 l/m 2,4 km/h (1 Bft) SW 225 0 min 0,0 UV-I -3,6 C 1,8 C 7,9 km/h (2 Bft)
14.02.2012 12:25 -0,5 C -0,7 C 0,0 C 1,6 C 1,6 C 2,1 C 80 % 81 % 55 % 1016,7 hPa 0,0 l/m 2,9 km/h (1 Bft) SO 135 0 min 0,0 UV-I -3,5 C 1,6 C 3,1 km/h (1 Bft)
14.02.2012 12:30 -0,5 C -0,7 C 0,1 C 1,5 C 1,5 C 2,0 C 80 % 81 % 53 % 1016,7 hPa 0,0 l/m 3,2 km/h (1 Bft) S-SO 157 0 min 0,0 UV-I -3,5 C 1,5 C 2,7 km/h (1 Bft)
14.02.2012 12:35 -0,4 C -0,7 C 0,3 C 2,1 C 2,1 C 2,5 C 80 % 81 % 66 % 1016,7 hPa 0,0 l/m 2,7 km/h (1 Bft) S-SO 157 0 min 0,0 UV-I -3,4 C 2,1 C 6,8 km/h (2 Bft)
14.02.2012 12:40 -0,4 C -0,7 C 0,3 C 1,9 C 1,9 C 2,3 C 80 % 81 % 61 % 1017,2 hPa 0,0 l/m 2,9 km/h (1 Bft) S 180 0 min 0,0 UV-I -3,4 C 1,9 C 5,1 km/h (1 Bft)
14.02.2012 12:45 -0,1 C -0,6 C 0,4 C 2,3 C 2,3 C 2,4 C 81 % 81 % 63 % 1017,2 hPa 0,0 l/m 2,4 km/h (1 Bft) O-SO 112 0 min 0,0 UV-I -3,0 C 2,3 C 3,7 km/h (1 Bft)
14.02.2012 12:50 -0,1 C -0,6 C 0,5 C 2,3 C 2,3 C 2,4 C 80 % 81 % 63 % 1017,2 hPa 0,0 l/m 2,1 km/h (1 Bft) W-SW 247 0 min 0,0 UV-I -3,1 C 2,3 C 2,9 km/h (1 Bft)
14.02.2012 12:55 -0,1 C -0,6 C 0,3 C 2,3 C 2,3 C 2,4 C 80 % 81 % 63 % 1017,2 hPa 0,0 l/m 1,8 km/h (1 Bft) W 270 0 min 0,0 UV-I -3,1 C 2,3 C 6,1 km/h (2 Bft)
14.02.2012 13:00 -0,1 C -0,6 C 0,4 C 2,1 C 2,1 C 2,2 C 80 % 81 % 58 % 1016,7 hPa 0,0 l/m 1,8 km/h (1 Bft) SW 225 0 min 0,0 UV-I -3,1 C 2,1 C 3,9 km/h (1 Bft)
14.02.2012 13:10 -0,3 C -0,6 C 0,3 C 0,5 C 0,5 C 0,8 C 80 % 81 % 21 % 1016,7 hPa 0,0 l/m 4,2 km/h (1 Bft) N 0 0 min 0,0 UV-I -3,3 C 0,5 C 7,1 km/h (2 Bft)
14.02.2012 13:20 -0,3 C -0,6 C 0,3 C 1,0 C 1,0 C 1,3 C 81 % 82 % 34 % 1016,7 hPa 0,0 l/m 2,9 km/h (1 Bft) S-SO 157 0 min 0,0 UV-I -3,2 C 1,0 C 0,0 km/h (0 Bft)
14.02.2012 13:25 -0,1 C -0,6 C 0,3 C 0,8 C 0,8 C 0,9 C 81 % 82 % 24 % 1016,7 hPa 0,0 l/m 3,2 km/h (1 Bft) W-SW 247 0 min 0,0 UV-I -3,0 C 0,8 C 2,7 km/h (1 Bft)
14.02.2012 13:30 -0,3 C -0,6 C 0,3 C 0,4 C 0,4 C 0,7 C 81 % 82 % 18 % 1016,7 hPa 0,0 l/m 3,7 km/h (1 Bft) W-SW 247 0 min 0,0 UV-I -3,2 C 0,4 C 6,1 km/h (2 Bft)
14.02.2012 13:35 -0,4 C -0,5 C 0,3 C -0,5 C -0,6 C 0,0 C 82 % 82 % 0 % 1016,7 hPa 0,0 l/m 5,0 km/h (1 Bft) W-SW 247 0 min 0,0 UV-I -3,1 C -2,3 C 12,4 km/h (3 Bft)
14.02.2012 13:40 -0,5 C -0,5 C 0,3 C -0,7 C -1,0 C 0,0 C 82 % 83 % 0 % 1016,7 hPa 0,0 l/m 5,5 km/h (1 Bft) SW 225 0 min 0,0 UV-I -3,2 C -3,0 C 5,8 km/h (2 Bft)
14.02.2012 13:45 -0,5 C -0,5 C 0,3 C -0,6 C -0,8 C 0,0 C 83 % 83 % 0 % 1016,7 hPa 0,0 l/m 5,0 km/h (1 Bft) W-SW 247 0 min 0,0 UV-I -3,0 C -2,5 C 5,5 km/h (1 Bft)
14.02.2012 13:50 -0,4 C -0,3 C 0,3 C 0,4 C 0,4 C 0,8 C 83 % 83 % 21 % 1016,7 hPa 0,0 l/m 3,2 km/h (1 Bft) W-SW 247 0 min 0,0 UV-I -2,9 C 0,4 C 4,5 km/h (1 Bft)
14.02.2012 13:55 -0,3 C -0,3 C 0,3 C 0,4 C 0,4 C 0,7 C 83 % 84 % 18 % 1016,7 hPa 0,0 l/m 3,4 km/h (1 Bft) W 270 0 min 0,0 UV-I -2,8 C 0,4 C 5,8 km/h (2 Bft)
14.02.2012 14:00 -0,3 C -0,5 C 0,4 C 0,3 C 0,3 C 0,6 C 84 % 84 % 16 % 1016,5 hPa 0,0 l/m 3,7 km/h (1 Bft) SW 225 0 min 0,0 UV-I -2,7 C 0,3 C 9,0 km/h (2 Bft)
14.02.2012 14:12 0,0 C -0,5 C 0,9 C 1,6 C 1,6 C 1,6 C 83 % 83 % 42 % 1016,5 hPa 0,0 l/m 3,7 km/h (1 Bft) N 0 0 min 0,0 UV-I -2,5 C 1,6 C 5,5 km/h (1 Bft)
14.02.2012 14:20 0,2 C -0,5 C 1,3 C 2,3 C 2,3 C 2,1 C 82 % 82 % 55 % 1016,5 hPa 0,0 l/m 3,9 km/h (1 Bft) W-SW 247 0 min 0,0 UV-I -2,5 C 2,3 C 0,0 km/h (0 Bft)
14.02.2012 14:25 0,4 C -0,5 C 1,3 C 3,0 C 3,0 C 2,6 C 82 % 82 % 68 % 1016,5 hPa 0,0 l/m 3,2 km/h (1 Bft) N-NO 22 0 min 0,0 UV-I -2,3 C 3,0 C 2,4 km/h (1 Bft)
14.02.2012 14:30 0,4 C -0,5 C 1,3 C 3,1 C 3,1 C 2,7 C 82 % 82 % 71 % 1016,5 hPa 0,0 l/m 3,2 km/h (1 Bft) W-SW 247 0 min 0,0 UV-I -2,3 C 3,1 C 5,8 km/h (2 Bft)
14.02.2012 14:35 0,5 C -0,3 C 1,4 C 3,4 C 3,4 C 2,9 C 82 % 82 % 76 % 1016,5 hPa 0,0 l/m 2,1 km/h (1 Bft) W-NW 292 0 min 0,0 UV-I -2,2 C 3,4 C 0,0 km/h (0 Bft)
14.02.2012 14:40 0,6 C -0,5 C 1,6 C 3,7 C 3,7 C 3,1 C 82 % 81 % 82 % 1016,5 hPa 0,0 l/m 1,8 km/h (1 Bft) SW 225 0 min 0,0 UV-I -2,1 C 3,7 C 4,8 km/h (1 Bft)
14.02.2012 14:45 0,8 C -0,5 C 2,0 C 4,0 C 4,0 C 3,2 C 81 % 81 % 84 % 1016,5 hPa 0,0 l/m 1,9 km/h (1 Bft) O-NO 67 0 min 0,0 UV-I -2,1 C 4,0 C 1,8 km/h (1 Bft)
14.02.2012 14:50 0,8 C -0,3 C 1,7 C 3,8 C 3,8 C 3,0 C 81 % 80 % 79 % 1016,5 hPa 0,0 l/m 2,9 km/h (1 Bft) SW 225 0 min 0,0 UV-I -2,1 C 3,8 C 5,3 km/h (1 Bft)
14.02.2012 14:55 0,8 C -0,3 C 1,6 C 2,8 C 2,8 C 2,0 C 81 % 81 % 53 % 1016,5 hPa 0,0 l/m 3,5 km/h (1 Bft) O-NO 67 0 min 0,0 UV-I -2,1 C 2,8 C 3,5 km/h (1 Bft)
14.02.2012 15:00 0,8 C -0,3 C 1,6 C 2,6 C 2,6 C 1,8 C 81 % 81 % 47 % 1014,9 hPa 0,0 l/m 3,2 km/h (1 Bft) N-NW 337 0 min 0,0 UV-I -2,1 C 2,6 C 0,0 km/h (0 Bft)
14.02.2012 15:12 1,1 C -0,5 C 3,1 C 2,6 C 2,6 C 1,5 C 81 % 79 % 39 % 1014,9 hPa 0,0 l/m 3,9 km/h (1 Bft) N 0 0 min 0,0 UV-I -1,8 C 2,6 C 2,1 km/h (1 Bft)
14.02.2012 15:20 1,5 C -0,5 C 3,6 C 4,8 C 4,8 C 3,3 C 80 % 74 % 87 % 1015,0 hPa 0,0 l/m 3,1 km/h (1 Bft) W 270 8 min 0,0 UV-I -1,6 C 4,8 C 2,1 km/h (1 Bft)
14.02.2012 15:25 1,5 C -0,5 C 2,8 C 3,9 C 3,9 C 2,4 C 79 % 75 % 63 % 1015,0 hPa 0,0 l/m 3,1 km/h (1 Bft) SW 225 0 min 0,0 UV-I -1,7 C 3,9 C 3,1 km/h (1 Bft)
14.02.2012 15:30 1,2 C -0,3 C 2,4 C 3,5 C 3,5 C 2,3 C 79 % 76 % 61 % 1015,0 hPa 0,0 l/m 2,6 km/h (1 Bft) S 180 0 min 0,0 UV-I -2,0 C 3,5 C 4,3 km/h (1 Bft)
14.02.2012 15:35 1,1 C -0,3 C 2,0 C 2,6 C 2,6 C 1,5 C 79 % 78 % 39 % 1015,0 hPa 0,0 l/m 2,7 km/h (1 Bft) W 270 0 min 0,0 UV-I -2,1 C 2,6 C 8,0 km/h (2 Bft)
14.02.2012 15:40 1,1 C -0,3 C 1,8 C 2,2 C 2,2 C 1,1 C 79 % 78 % 29 % 1014,9 hPa 0,0 l/m 2,7 km/h (1 Bft) SO 135 0 min 0,0 UV-I -2,1 C 2,2 C 2,1 km/h (1 Bft)
14.02.2012 15:45 1,0 C -0,3 C 1,6 C 1,9 C 1,9 C 0,9 C 79 % 79 % 24 % 1014,9 hPa 0,0 l/m 2,9 km/h (1 Bft) S 180 0 min 0,0 UV-I -2,2 C 1,9 C 6,0 km/h (2 Bft)
14.02.2012 15:50 0,9 C -0,3 C 1,6 C 1,7 C 1,7 C 0,8 C 80 % 79 % 21 % 1014,9 hPa 0,0 l/m 3,1 km/h (1 Bft) SO 135 0 min 0,0 UV-I -2,2 C 1,7 C 6,0 km/h (2 Bft)
14.02.2012 15:55 0,8 C -0,3 C 1,5 C 1,0 C 1,0 C 0,2 C 80 % 80 % 5 % 1014,9 hPa 0,0 l/m 3,7 km/h (1 Bft) SO 135 0 min 0,0 UV-I -2,2 C 1,0 C 2,7 km/h (1 Bft)
14.02.2012 16:00 0,8 C -0,3 C 1,3 C 1,2 C 1,2 C 0,4 C 80 % 80 % 11 % 1014,9 hPa 0,0 l/m 3,2 km/h (1 Bft) S-SW 202 0 min 0,0 UV-I -2,2 C 1,2 C 3,2 km/h (1 Bft)
14.02.2012 16:11 0,8 C -0,3 C 1,1 C 1,3 C 1,3 C 0,5 C 80 % 81 % 13 % 1014,9 hPa 0,0 l/m 1,6 km/h (1 Bft) N 0 0 min 0,0 UV-I -2,2 C 1,3 C 2,1 km/h (1 Bft)
14.02.2012 16:20 0,8 C -0,3 C 1,1 C 1,1 C 1,1 C 0,3 C 80 % 84 % 8 % 1014,6 hPa 0,0 l/m 1,0 km/h (0 Bft) NW 315 0 min 0,0 UV-I -2,2 C 1,1 C 0,0 km/h (0 Bft)
14.02.2012 16:25 0,8 C -0,3 C 0,9 C 1,1 C 1,1 C 0,3 C 80 % 85 % 8 % 1014,6 hPa 0,0 l/m 1,8 km/h (1 Bft) W 270 0 min 0,0 UV-I -2,2 C 1,1 C 3,5 km/h (1 Bft)
14.02.2012 16:30 0,8 C -0,3 C 0,8 C 1,0 C 1,0 C 0,2 C 80 % 86 % 5 % 1014,6 hPa 0,0 l/m 1,8 km/h (1 Bft) W 270 0 min 0,0 UV-I -2,2 C 1,0 C 3,4 km/h (1 Bft)
14.02.2012 16:35 0,7 C -0,3 C 0,7 C 1,0 C 1,0 C 0,3 C 80 % 87 % 8 % 1014,6 hPa 0,0 l/m 1,1 km/h (1 Bft) O-NO 67 0 min 0,0 UV-I -2,3 C 1,0 C 0,0 km/h (0 Bft)
14.02.2012 16:40 0,7 C -0,3 C 0,7 C 0,9 C 0,9 C 0,2 C 80 % 87 % 5 % 1014,6 hPa 0,0 l/m 1,6 km/h (1 Bft) S-SO 157 0 min 0,0 UV-I -2,3 C 0,9 C 3,1 km/h (1 Bft)
14.02.2012 16:45 0,7 C -0,3 C 0,7 C 0,7 C 0,7 C 0,0 C 80 % 87 % 0 % 1014,6 hPa 0,0 l/m 2,4 km/h (1 Bft) SW 225 0 min 0,0 UV-I -2,3 C 0,7 C 4,7 km/h (1 Bft)
14.02.2012 16:50 0,7 C -0,3 C 0,6 C 0,5 C 0,0 C 0,0 C 80 % 88 % 0 % 1014,6 hPa 0,0 l/m 3,5 km/h (1 Bft) S-SO 157 0 min 0,0 UV-I -2,3 C 0,0 C 11,3 km/h (2 Bft)
14.02.2012 16:55 0,7 C -0,3 C 0,5 C 0,3 C -0,5 C 0,0 C 80 % 88 % 0 % 1014,6 hPa 0,0 l/m 4,2 km/h (1 Bft) NW 315 0 min 0,0 UV-I -2,3 C -0,5 C 8,2 km/h (2 Bft)
14.02.2012 17:00 0,7 C -0,3 C 0,5 C 0,3 C -0,6 C 0,0 C 80 % 88 % 0 % 1014,2 hPa 0,0 l/m 4,0 km/h (1 Bft) W-SW 247 0 min 0,0 UV-I -2,3 C -0,6 C 7,1 km/h (2 Bft)
14.02.2012 17:11 0,6 C -0,3 C 0,4 C -0,1 C -1,6 C 0,0 C 80 % 88 % 0 % 1014,2 hPa 0,0 l/m 6,3 km/h (2 Bft) N 0 0 min 0,0 UV-I -2,4 C -4,0 C 16,7 km/h (3 Bft)
14.02.2012 17:20 0,5 C -0,2 C 0,4 C -0,1 C -1,2 C 0,0 C 81 % 89 % 0 % 1014,2 hPa 0,0 l/m 5,1 km/h (1 Bft) S-SO 157 0 min 0,0 UV-I -2,4 C -3,0 C 18,8 km/h (3 Bft)
14.02.2012 17:25 0,4 C -0,2 C 0,3 C -0,1 C -1,2 C 0,0 C 81 % 89 % 0 % 1014,2 hPa 0,0 l/m 4,7 km/h (1 Bft) O-SO 112 0 min 0,0 UV-I -2,5 C -2,8 C 4,2 km/h (1 Bft)
14.02.2012 17:30 0,4 C -0,2 C 0,3 C -0,1 C -1,2 C 0,0 C 82 % 89 % 0 % 1014,2 hPa 0,0 l/m 4,5 km/h (1 Bft) W-NW 292 0 min 0,0 UV-I -2,3 C -1,2 C 5,0 km/h (1 Bft)
14.02.2012 17:35 0,4 C 0,0 C 0,2 C -0,1 C -1,2 C 0,0 C 82 % 89 % 0 % 1014,2 hPa 0,0 l/m 4,2 km/h (1 Bft) W-SW 247 0 min 0,0 UV-I -2,3 C -1,2 C 7,1 km/h (2 Bft)
14.02.2012 17:40 0,3 C 0,0 C 0,3 C -0,4 C -1,7 C 0,0 C 82 % 89 % 0 % 1013,7 hPa 0,0 l/m 5,1 km/h (1 Bft) SW 225 0 min 0,0 UV-I -2,4 C -3,6 C 3,2 km/h (1 Bft)
14.02.2012 17:45 0,3 C 0,0 C 0,1 C -0,4 C -1,7 C 0,0 C 83 % 89 % 0 % 1013,7 hPa 0,0 l/m 4,8 km/h (1 Bft) W-SW 247 0 min 0,0 UV-I -2,2 C -3,4 C 12,2 km/h (2 Bft)
14.02.2012 17:50 0,1 C 0,0 C 0,0 C -0,5 C -1,7 C 0,0 C 84 % 90 % 0 % 1013,7 hPa 0,0 l/m 4,8 km/h (1 Bft) W-SW 247 0 min 0,0 UV-I -2,3 C -3,4 C 4,0 km/h (1 Bft)
14.02.2012 17:55 0,0 C 0,0 C -0,1 C -0,6 C -1,7 C 0,0 C 84 % 90 % 0 % 1013,7 hPa 0,0 l/m 4,5 km/h (1 Bft) S-SO 157 0 min 0,0 UV-I -2,4 C -1,7 C 10,6 km/h (2 Bft)
14.02.2012 18:00 -0,1 C 0,0 C -0,1 C -0,5 C -1,4 C 0,0 C 86 % 91 % 0 % 1013,7 hPa 0,0 l/m 3,9 km/h (1 Bft) W-SW 247 0 min 0,0 UV-I -2,2 C -1,4 C 7,9 km/h (2 Bft)
14.02.2012 18:11 -0,1 C 0,0 C -0,2 C -0,7 C -1,8 C 0,0 C 87 % 91 % 0 % 1013,7 hPa 0,0 l/m 4,0 km/h (1 Bft) N 0 0 min 0,0 UV-I -2,0 C -1,8 C 5,1 km/h (1 Bft)
14.02.2012 18:20 -0,3 C 0,0 C -0,1 C -1,0 C -2,3 C 0,0 C 88 % 92 % 0 % 1014,1 hPa 0,0 l/m 5,3 km/h (1 Bft) SW 225 0 min 0,0 UV-I -2,0 C -4,3 C 6,0 km/h (2 Bft)
14.02.2012 18:25 -0,3 C 0,0 C -0,1 C -1,0 C -2,5 C 0,0 C 89 % 92 % 0 % 1014,1 hPa 0,0 l/m 5,5 km/h (1 Bft) W-SW 247 0 min 0,0 UV-I -1,9 C -4,7 C 3,4 km/h (1 Bft)
14.02.2012 18:30 -0,3 C 0,0 C -0,1 C -0,8 C -1,7 C 0,0 C 89 % 92 % 0 % 1014,1 hPa 0,0 l/m 4,2 km/h (1 Bft) SW 225 0 min 0,0 UV-I -1,9 C -1,7 C 6,6 km/h (2 Bft)
14.02.2012 18:35 -0,1 C 0,0 C -0,2 C -0,8 C -2,1 C 0,0 C 89 % 92 % 0 % 1014,1 hPa 0,0 l/m 4,8 km/h (1 Bft) NW 315 0 min 0,0 UV-I -1,7 C -3,9 C 9,3 km/h (2 Bft)
14.02.2012 18:40 -0,2 C 0,0 C -0,1 C -0,8 C -2,1 C 0,0 C 90 % 92 % 0 % 1014,1 hPa 0,0 l/m 5,0 km/h (1 Bft) S 180 0 min 0,0 UV-I -1,6 C -4,0 C 5,1 km/h (1 Bft)
14.02.2012 18:45 -0,1 C 0,0 C -0,1 C -0,9 C -2,4 C 0,0 C 90 % 92 % 0 % 1014,1 hPa 0,0 l/m 6,0 km/h (2 Bft) W-NW 292 0 min 0,0 UV-I -1,5 C -4,8 C 14,0 km/h (3 Bft)
14.02.2012 18:50 -0,1 C 0,0 C -0,1 C -1,0 C -2,7 C 0,0 C 90 % 92 % 0 % 1014,1 hPa 0,0 l/m 6,9 km/h (2 Bft) SW 225 0 min 0,0 UV-I -1,5 C -5,5 C 7,4 km/h (2 Bft)
14.02.2012 18:55 -0,1 C 0,0 C -0,1 C -1,0 C -2,9 C 0,0 C 90 % 92 % 0 % 1014,1 hPa 0,0 l/m 7,4 km/h (2 Bft) W-SW 247 0 min 0,0 UV-I -1,5 C -5,9 C 8,5 km/h (2 Bft)
14.02.2012 19:00 -0,1 C 0,0 C -0,1 C -0,9 C -2,6 C 0,0 C 90 % 93 % 0 % 1013,4 hPa 0,0 l/m 6,6 km/h (2 Bft) N-NW 337 0 min 0,0 UV-I -1,5 C -5,3 C 8,7 km/h (2 Bft)
14.02.2012 19:11 -0,2 C 0,0 C -0,1 C -1,0 C -2,7 C 0,0 C 90 % 92 % 0 % 1013,4 hPa 0,0 l/m 6,6 km/h (2 Bft) N 0 0 min 0,0 UV-I -1,6 C -5,4 C 17,2 km/h (3 Bft)
14.02.2012 19:20 -0,2 C 0,0 C -0,1 C -1,0 C -2,7 C 0,0 C 90 % 92 % 0 % 1013,4 hPa 0,0 l/m 6,1 km/h (2 Bft) W-SW 247 0 min 0,0 UV-I -1,6 C -5,2 C 13,4 km/h (3 Bft)
14.02.2012 19:25 -0,2 C 0,0 C -0,1 C -1,2 C -3,1 C 0,0 C 90 % 92 % 0 % 1013,4 hPa 0,0 l/m 7,2 km/h (2 Bft) W 270 0 min 0,0 UV-I -1,6 C -6,1 C 7,4 km/h (2 Bft)
14.02.2012 19:30 -0,2 C 0,1 C -0,1 C -1,2 C -3,1 C 0,0 C 89 % 92 % 0 % 1013,4 hPa 0,0 l/m 7,2 km/h (2 Bft) W 270 0 min 0,0 UV-I -1,8 C -6,1 C 9,7 km/h (2 Bft)
14.02.2012 19:35 -0,1 C 0,1 C -0,1 C -1,0 C -2,9 C 0,0 C 89 % 92 % 0 % 1013,4 hPa 0,0 l/m 6,6 km/h (2 Bft) W-SW 247 0 min 0,0 UV-I -1,7 C -5,6 C 9,8 km/h (2 Bft)
14.02.2012 19:40 -0,1 C 0,1 C -0,1 C -1,1 C -3,2 C 0,0 C 89 % 92 % 0 % 1013,4 hPa 0,0 l/m 7,6 km/h (2 Bft) S 180 0 min 0,0 UV-I -1,7 C -6,4 C 12,4 km/h (3 Bft)
14.02.2012 19:45 -0,1 C 0,1 C -0,1 C -0,8 C -3,3 C 0,0 C 89 % 92 % 0 % 1013,4 hPa 0,0 l/m 8,2 km/h (2 Bft) W-SW 247 0 min 0,0 UV-I -1,7 C -6,7 C 8,7 km/h (2 Bft)
14.02.2012 19:50 -0,1 C 0,1 C -0,1 C -1,2 C -3,3 C 0,0 C 89 % 92 % 0 % 1013,4 hPa 0,0 l/m 8,4 km/h (2 Bft) S 180 0 min 0,0 UV-I -1,7 C -6,8 C 12,4 km/h (3 Bft)
14.02.2012 19:55 0,1 C 0,1 C -0,1 C -1,0 C -3,3 C 0,0 C 89 % 92 % 0 % 1013,4 hPa 0,0 l/m 8,7 km/h (2 Bft) W-SW 247 0 min 0,0 UV-I -1,5 C -6,9 C 12,4 km/h (3 Bft)
14.02.2012 20:00 0,1 C 0,1 C -0,1 C -0,7 C -3,2 C 0,0 C 89 % 92 % 0 % 1013,4 hPa 0,0 l/m 8,4 km/h (2 Bft) S 180 0 min 0,0 UV-I -1,5 C -6,6 C 9,8 km/h (2 Bft)
14.02.2012 20:12 0,1 C 0,1 C 0,1 C -0,7 C -3,3 C 0,0 C 89 % 92 % 0 % 1013,4 hPa 0,0 l/m 9,0 km/h (2 Bft) N 0 0 min 0,0 UV-I -1,5 C -7,0 C 20,1 km/h (4 Bft)
14.02.2012 20:20 0,3 C 0,1 C 0,0 C -0,6 C -3,5 C 0,0 C 89 % 92 % 0 % 1013,4 hPa 0,0 l/m 10,3 km/h (2 Bft) SW 225 0 min 0,0 UV-I -1,3 C -7,6 C 20,6 km/h (4 Bft)
14.02.2012 20:25 0,3 C 0,1 C 0,0 C -0,6 C -3,6 C 0,0 C 89 % 92 % 0 % 1013,4 hPa 0,0 l/m 11,3 km/h (2 Bft) W-SW 247 0 min 0,0 UV-I -1,3 C -8,0 C 18,5 km/h (3 Bft)
14.02.2012 20:30 0,3 C 0,1 C 0,1 C -0,6 C -3,8 C 0,0 C 90 % 92 % 0 % 1013,4 hPa 0,0 l/m 11,9 km/h (2 Bft) W-SW 247 0 min 0,0 UV-I -1,1 C -8,4 C 21,1 km/h (4 Bft)
14.02.2012 20:35 0,3 C 0,1 C 0,1 C -1,1 C -3,8 C 0,0 C 90 % 92 % 0 % 1013,4 hPa 0,0 l/m 12,1 km/h (2 Bft) W-SW 247 0 min 0,0 UV-I -1,1 C -8,4 C 19,2 km/h (3 Bft)
14.02.2012 20:40 0,2 C 0,1 C 0,1 C -0,7 C -3,7 C 0,0 C 90 % 92 % 0 % 1011,2 hPa 0,0 l/m 11,6 km/h (2 Bft) W-NW 292 0 min 0,0 UV-I -1,2 C -8,2 C 9,3 km/h (2 Bft)
14.02.2012 20:45 0,3 C 0,1 C 0,1 C -0,6 C -3,5 C 0,0 C 90 % 93 % 0 % 1011,2 hPa 0,0 l/m 11,1 km/h (2 Bft) W-SW 247 0 min 0,0 UV-I -1,1 C -7,8 C 18,8 km/h (3 Bft)
14.02.2012 20:50 0,3 C 0,1 C 0,1 C -0,6 C -3,6 C 0,0 C 91 % 93 % 0 % 1011,2 hPa 0,0 l/m 11,7 km/h (2 Bft) SW 225 0 min 0,0 UV-I -1,0 C -8,1 C 10,0 km/h (2 Bft)
14.02.2012 20:55 0,2 C 0,1 C 0,1 C -0,7 C -3,8 C 0,0 C 91 % 93 % 0 % 1011,2 hPa 0,0 l/m 12,7 km/h (3 Bft) O-NO 67 0 min 0,0 UV-I -1,1 C -8,6 C 12,2 km/h (2 Bft)
14.02.2012 21:02 0,3 C 0,1 C 0,1 C -0,6 C -3,6 C 0,0 C 91 % 93 % 0 % 1010,8 hPa 0,0 l/m 11,4 km/h (2 Bft) S-SO 157 0 min 0,0 UV-I -1,0 C -8,0 C 24,9 km/h (4 Bft)
14.02.2012 21:03 0,3 C 0,1 C 0,1 C -1,0 C -3,6 C 0,0 C 91 % 93 % 0 % 1010,8 hPa 0,0 l/m 11,4 km/h (2 Bft) N 0 0 min 0,0 UV-I -1,0 C -8,0 C 10,6 km/h (2 Bft)
14.02.2012 21:18 0,3 C 0,1 C 0,2 C -0,5 C -3,2 C 0,0 C 91 % 93 % 0 % 1010,8 hPa 0,0 l/m 10,0 km/h (2 Bft) W-SW 247 0 min 0,0 UV-I -1,0 C -7,1 C 16,3 km/h (3 Bft)
14.02.2012 21:19 0,3 C 0,1 C 0,2 C -0,5 C -2,9 C 0,0 C 91 % 93 % 0 % 1010,8 hPa 0,0 l/m 9,2 km/h (2 Bft) SW 225 0 min 0,0 UV-I -1,0 C -6,5 C 10,8 km/h (2 Bft)
14.02.2012 21:20 0,3 C 0,1 C 0,2 C -0,8 C -2,9 C 0,0 C 91 % 93 % 0 % 1010,8 hPa 0,0 l/m 9,2 km/h (2 Bft) SW 225 0 min 0,0 UV-I -1,0 C -6,5 C 10,8 km/h (2 Bft)
14.02.2012 21:21 0,3 C 0,1 C 0,2 C -0,8 C -2,9 C 0,0 C 91 % 93 % 0 % 1010,8 hPa 0,0 l/m 9,2 km/h (2 Bft) SW 225 0 min 0,0 UV-I -1,0 C -6,5 C 10,8 km/h (2 Bft)
14.02.2012 21:22 0,3 C 0,1 C 0,2 C -0,8 C -2,9 C 0,0 C 91 % 93 % 0 % 1010,8 hPa 0,0 l/m 9,2 km/h (2 Bft) SW 225 0 min 0,0 UV-I -1,0 C -6,5 C 10,8 km/h (2 Bft)
14.02.2012 21:24 0,3 C 0,1 C 0,3 C -0,1 C -3,0 C 0,0 C 91 % 93 % 0 % 1010,8 hPa 0,0 l/m 9,3 km/h (2 Bft) SW 225 0 min 0,0 UV-I -1,0 C -6,7 C 7,6 km/h (2 Bft)
14.02.2012 21:26 0,3 C 0,1 C 0,3 C -0,8 C -3,0 C 0,0 C 91 % 93 % 0 % 1010,8 hPa 0,0 l/m 9,3 km/h (2 Bft) SW 225 0 min 0,0 UV-I -1,0 C -6,7 C 7,6 km/h (2 Bft)
14.02.2012 21:30 0,4 C 0,1 C 0,3 C -0,4 C -3,3 C 0,0 C 91 % 93 % 0 % 1010,8 hPa 0,0 l/m 10,3 km/h (2 Bft) SW 225 0 min 0,0 UV-I -0,9 C -7,3 C 11,1 km/h (2 Bft)
14.02.2012 21:35 0,4 C 0,1 C 0,3 C -0,5 C -3,4 C 0,0 C 91 % 93 % 0 % 1010,8 hPa 0,0 l/m 10,8 km/h (2 Bft) S-SW 202 0 min 0,0 UV-I -0,9 C -7,6 C 16,7 km/h (3 Bft)
14.02.2012 21:39 0,4 C 0,1 C 0,3 C -0,1 C -3,1 C 0,0 C 91 % 93 % 0 % 1010,6 hPa 0,0 l/m 10,1 km/h (2 Bft) W 270 0 min 0,0 UV-I -0,9 C -7,0 C 15,0 km/h (3 Bft)
14.02.2012 21:44 0,5 C 0,1 C 0,3 C -0,4 C -3,4 C 0,0 C 91 % 93 % 0 % 1010,6 hPa 0,0 l/m 11,3 km/h (2 Bft) W-SW 247 0 min 0,0 UV-I -0,8 C -7,7 C 14,6 km/h (3 Bft)
14.02.2012 21:50 0,4 C 0,1 C 0,3 C -0,9 C -3,4 C 0,0 C 91 % 93 % 0 % 1010,6 hPa 0,0 l/m 11,3 km/h (2 Bft) SW 225 0 min 0,0 UV-I -0,9 C -7,7 C 17,9 km/h (3 Bft)
14.02.2012 21:55 0,4 C 0,1 C 0,3 C -0,5 C -3,3 C 0,0 C 91 % 93 % 0 % 1010,6 hPa 0,0 l/m 10,9 km/h (2 Bft) SW 225 0 min 0,0 UV-I -0,9 C -7,5 C 11,1 km/h (2 Bft)
14.02.2012 22:00 0,4 C 0,1 C 0,3 C -0,4 C -3,2 C 0,0 C 91 % 93 % 0 % 1010,6 hPa 0,0 l/m 10,5 km/h (2 Bft) SW 225 0 min 0,0 UV-I -0,9 C -7,3 C 9,0 km/h (2 Bft)
14.02.2012 22:11 0,5 C 0,1 C 0,3 C -0,3 C -2,8 C 0,0 C 91 % 93 % 0 % 1010,6 hPa 0,0 l/m 9,5 km/h (2 Bft) N 0 0 min 0,0 UV-I -0,8 C -6,5 C 9,5 km/h (2 Bft)
14.02.2012 22:20 0,6 C 0,2 C 0,4 C -0,2 C -3,1 C 0,0 C 90 % 93 % 0 % 1010,2 hPa 0,0 l/m 10,5 km/h (2 Bft) SW 225 0 min 0,0 UV-I -0,8 C -7,2 C 17,1 km/h (3 Bft)
14.02.2012 22:25 0,7 C 0,2 C 0,4 C -0,2 C -3,2 C 0,0 C 90 % 93 % 0 % 1010,2 hPa 0,0 l/m 11,3 km/h (2 Bft) SW 225 0 min 0,0 UV-I -0,7 C -7,5 C 12,4 km/h (3 Bft)
14.02.2012 22:30 0,7 C 0,2 C 0,4 C -0,2 C -3,3 C 0,0 C 90 % 93 % 0 % 1010,2 hPa 0,0 l/m 11,9 km/h (2 Bft) W-SW 247 0 min 0,0 UV-I -0,7 C -7,8 C 15,3 km/h (3 Bft)
14.02.2012 22:35 0,7 C 0,2 C 0,4 C -0,6 C -3,3 C 0,0 C 89 % 93 % 0 % 1010,2 hPa 0,0 l/m 11,9 km/h (2 Bft) SW 225 0 min 0,0 UV-I -0,9 C -7,8 C 9,3 km/h (2 Bft)
14.02.2012 22:40 0,8 C 0,2 C 0,5 C -0,1 C -3,2 C 0,0 C 89 % 93 % 0 % 1009,5 hPa 0,0 l/m 11,3 km/h (2 Bft) S 180 0 min 0,0 UV-I -0,8 C -7,5 C 15,1 km/h (3 Bft)
14.02.2012 22:45 0,8 C 0,2 C 0,4 C -0,1 C -2,7 C 0,0 C 89 % 93 % 0 % 1009,5 hPa 0,0 l/m 9,7 km/h (2 Bft) S 180 0 min 0,0 UV-I -0,8 C -6,5 C 12,7 km/h (3 Bft)
14.02.2012 22:50 0,8 C 0,2 C 0,4 C 0,0 C -2,8 C 0,0 C 89 % 93 % 0 % 1009,5 hPa 0,0 l/m 10,3 km/h (2 Bft) W-SW 247 0 min 0,0 UV-I -0,8 C -6,7 C 10,5 km/h (2 Bft)
14.02.2012 22:55 0,8 C 0,2 C 0,5 C -0,1 C -3,3 C 0,0 C 89 % 93 % 0 % 1009,5 hPa 0,0 l/m 12,6 km/h (3 Bft) SW 225 0 min 0,0 UV-I -0,8 C -7,9 C 14,8 km/h (3 Bft)
14.02.2012 23:00 0,8 C 0,2 C 0,5 C -0,2 C -3,6 C 0,0 C 89 % 93 % 0 % 1009,6 hPa 0,0 l/m 13,7 km/h (3 Bft) SW 225 0 min 0,0 UV-I -0,8 C -8,6 C 29,0 km/h (5 Bft)
14.02.2012 23:11 0,9 C 0,2 C 0,7 C -0,6 C -3,6 C 0,0 C 88 % 93 % 0 % 1009,6 hPa 0,0 l/m 13,5 km/h (3 Bft) N 0 0 min 0,0 UV-I -0,9 C -8,5 C 16,3 km/h (3 Bft)
14.02.2012 23:20 0,9 C 0,3 C 0,6 C -0,2 C -3,7 C 0,0 C 87 % 93 % 0 % 1008,7 hPa 0,0 l/m 14,2 km/h (3 Bft) W-SW 247 0 min 0,0 UV-I -1,0 C -8,8 C 19,6 km/h (3 Bft)
14.02.2012 23:25 1,0 C 0,3 C 0,7 C -0,1 C -3,6 C 0,0 C 88 % 92 % 0 % 1008,7 hPa 0,0 l/m 14,3 km/h (3 Bft) SW 225 0 min 0,0 UV-I -0,8 C -8,7 C 10,0 km/h (2 Bft)
14.02.2012 23:30 0,9 C 0,3 C 0,7 C -0,1 C -3,5 C 0,0 C 87 % 92 % 0 % 1008,7 hPa 0,0 l/m 13,8 km/h (3 Bft) SW 225 0 min 0,0 UV-I -1,0 C -8,5 C 11,4 km/h (2 Bft)
14.02.2012 23:35 1,1 C 0,3 C 0,7 C 0,0 C -3,4 C 0,0 C 87 % 92 % 0 % 1008,7 hPa 0,0 l/m 13,7 km/h (3 Bft) SW 225 0 min 0,0 UV-I -0,8 C -8,3 C 14,5 km/h (3 Bft)
14.02.2012 23:40 1,0 C 0,3 C 0,7 C 0,0 C -3,5 C 0,0 C 87 % 92 % 0 % 1008,3 hPa 0,0 l/m 14,0 km/h (3 Bft) W-SW 247 0 min 0,0 UV-I -0,9 C -8,5 C 23,0 km/h (4 Bft)
14.02.2012 23:45 1,0 C 0,3 C 0,7 C -0,5 C -3,5 C 0,0 C 87 % 92 % 0 % 1008,3 hPa 0,0 l/m 14,0 km/h (3 Bft) SW 225 0 min 0,0 UV-I -0,9 C -8,5 C 18,7 km/h (3 Bft)
14.02.2012 23:50 0,9 C 0,3 C 0,6 C -0,1 C -3,6 C 0,0 C 87 % 92 % 0 % 1008,3 hPa 0,0 l/m 14,8 km/h (3 Bft) W-SW 247 0 min 0,0 UV-I -1,0 C -8,8 C 21,9 km/h (4 Bft)
14.02.2012 23:55 0,8 C 0,2 C 0,7 C -0,2 C -3,7 C 0,0 C 88 % 92 % 0 % 1008,3 hPa 0,0 l/m 14,2 km/h (3 Bft) SW 225 0 min 0,0 UV-I -1,0 C -8,8 C 21,9 km/h (4 Bft)
_ Min-Zeit 05:35 00:00 05:11 05:25 05:25 00:00 15:25 15:20 00:00 23:40 - 00:40 - - - 00:00 05:35 23:50 00:00
Minimum _ -4,2 C -0,9 C -4,3 C -4,3 C -4,6 C 0,0 C 79 % 74 % 0 % 1008,3 hPa - 0,0 km/h (0 Bft) - - - 0,0 UV-I -6,8 C -8,8 C 0,0 km/h (0 Bft)
_ Max-Zeit 15:20 23:20 15:20 15:20 15:20 15:20 20:50 19:00 15:20 00:00 00:00 23:50 - - 15:20 00:00 22:25 15:20 23:00
Maximum _ 1,5 C 0,3 C 3,6 C 4,8 C 4,8 C 3,3 C 91 % 93 % 87 % 1019,4 hPa 0,0 l/m 14,8 km/h
W-SW (3 Bft)
- - 8 min 0,0 UV-I -0,7 C 4,8 C 29,0 km/h
SW (5 Bft)
Durchschnitt _ -1,4 C -0,5 C -1,2 C -1,2 C -2,0 C 0,5 C 83 % 86 % 12 % 1015,8 hPa #0,0 l/m 3,7 km/h (1 Bft) SW - #8 min. 0,0 UV-I -3,8 C -2,9 C 5,4 km/h (1 Bft)
2012 www.wetterstation-wechselburg.de